Date,TemperatureHighF,TemperatureAvgF,TemperatureLowF,DewpointHighF,DewpointAvgF,DewpointLowF,HumidityHigh,HumidityAvg,HumidityLow,PressureMaxIn,PressureMinIn,WindSpeedMaxMPH,WindSpeedAvgMPH,GustSpeedMaxMPH,PrecipitationSumIn
2013-6-1,96.0,79.3,63.0,76.7,21.8,-39.3,87,29,1,30.11,29.99,10,1,10,0.00
2013-6-2,92.0,77.7,68.0,75.8,7.4,-36.3,88,23,1,29.99,29.85,15,1,16,0.00
2013-6-3,78.0,68.8,60.0,58.8,-8.7,-38.7,81,17,1,29.93,29.87,7,0,7,0.00
2013-6-4,71.0,60.7,47.0,55.4,31.4,-49.0,93,44,1,30.15,29.90,10,2,10,0.00
2013-6-5,78.0,62.5,47.0,57.7,15.1,-49.0,89,33,1,30.29,30.15,8,1,8,0.00
2013-6-6,78.0,64.6,52.0,59.0,28.7,-46.0,90,41,1,30.28,30.18,11,1,11,0.00
2013-6-7,58.0,55.3,53.0,-42.9,-43.9,-45.3,1,1,1,30.18,29.86,8,1,9,0.00
2013-6-8,79.0,62.9,53.0,55.7,-14.5,-46.0,48,12,1,30.07,29.67,9,1,9,0.01
2013-6-9,80.0,66.6,53.0,66.9,5.3,-45.3,87,24,1,30.23,30.07,9,1,9,0.00
2013-6-10,70.0,61.5,53.0,47.3,-16.4,-45.3,46,11,1,30.29,30.09,8,1,8,0.00
2013-6-11,63.0,58.1,55.0,-39.3,-42.2,-44.1,1,1,1,30.09,29.64,12,1,12,0.01
2013-6-12,70.0,62.3,56.0,62.8,8.8,-43.5,90,34,1,29.89,29.61,13,2,13,0.00
2013-6-13,67.0,56.3,49.0,34.4,-36.3,-47.8,31,3,1,29.87,29.73,8,0,8,0.00
2013-6-14,73.0,59.7,52.0,65.1,-13.7,-46.0,80,18,1,29.83,29.68,9,1,10,0.01
2013-6-15,79.0,65.0,50.0,61.7,7.7,-47.2,89,23,1,30.04,29.83,7,1,10,0.00
2013-6-16,80.0,65.3,50.0,67.9,14.0,-47.2,90,32,1,30.02,29.81,9,1,9,0.00
2013-6-17,88.0,69.0,56.0,71.1,-2.0,-43.5,79,17,1,29.99,29.86,10,1,10,0.00
2013-6-18,77.0,62.2,57.0,46.3,-33.7,-42.9,35,3,1,30.04,29.95,10,1,11,0.00
2013-6-19,77.0,64.1,55.0,62.8,4.6,-44.1,88,26,1,30.20,29.97,10,1,10,0.00
2013-6-20,82.0,65.7,48.0,62.7,14.6,-48.4,88,29,1,30.37,30.20,9,0,9,0.00
2013-6-21,87.0,71.3,57.0,72.2,9.9,-42.9,88,24,1,30.37,30.29,7,1,7,0.00
2013-6-22,86.0,72.6,59.0,71.1,24.3,-41.7,89,35,1,30.34,30.23,9,1,9,0.00
2013-6-23,93.0,76.9,64.0,77.3,28.6,-38.7,90,33,1,30.25,30.13,12,1,12,0.00
2013-6-24,94.0,79.5,68.0,81.4,16.4,-36.3,90,28,1,30.13,30.01,10,1,10,0.00
2013-6-25,93.0,79.2,67.0,79.7,24.6,-36.9,92,33,1,30.03,29.85,9,1,11,0.00
2013-6-26,87.0,74.7,68.0,80.3,-4.5,-36.3,90,17,1,29.95,29.83,10,1,11,0.00
2013-6-27,76.0,66.8,62.0,-18.5,-37.0,-39.9,2,1,1,29.95,29.84,9,1,9,0.00
2013-6-28,84.0,72.2,59.0,36.4,-26.7,-41.7,19,2,1,29.84,29.61,12,2,12,0.00
2013-6-29,85.0,75.1,70.0,76.7,2.2,-35.1,90,25,1,29.82,29.61,10,1,10,0.00
2013-6-30,89.0,76.3,67.0,81.0,5.3,-36.9,88,23,1,30.05,29.83,9,1,9,0.00